When you browse on this site, cookies collect data to enhance your experience and personalize the content and advertising you see.
Visit our Privacy Policy to learn more. By continuing to use the site, you agree to this use of cookies and data.
  • In Germany
  • List of Countries
  • For 7 days
  • Water Temperature
  • Weather Map
  • Weather Widgets
  • user-avatar
    Login

    Hourly Weather Polotsk

    Today, 2 June, Tuesday

    Time Temperature Precipitation Wind Pressure Humidity
    00:00 +7°C° 0 mm 5 mps 746 mmHg 78%
    01:00 +7°C° 0 mm 5 mps 746 mmHg 78%
    02:00 +7°C° 0 mm 5 mps 746 mmHg 78%
    03:00 +7°C° 0 mm 5 mps 746 mmHg 78%
    04:00 +7°C° 0 mm 6 mps 745 mmHg 78%
    05:00 +8°C° 0 mm 6 mps 745 mmHg 78%
    06:00 +8°C° 0.1 mm 6 mps 745 mmHg 75%
    07:00 +9°C° 0.1 mm 6 mps 745 mmHg 72%
    08:00 +10°C° 0.1 mm 7 mps 745 mmHg 70%
    09:00 +11°C° 0 mm 7 mps 745 mmHg 66%
    10:00 +12°C° 0 mm 7 mps 745 mmHg 63%
    11:00 +14°C° 0 mm 7 mps 744 mmHg 59%
    12:00 +13°C° 0.2 mm 6 mps 744 mmHg 62%
    13:00 +13°C° 0.2 mm 5 mps 744 mmHg 64%
    14:00 +13°C° 0.2 mm 5 mps 744 mmHg 66%
    15:00 +12°C° 0.3 mm 5 mps 744 mmHg 69%
    16:00 +10°C° 0.3 mm 5 mps 744 mmHg 72%
    17:00 +9°C° 0.3 mm 5 mps 743 mmHg 76%
    18:00 +9°C° 0.4 mm 5 mps 743 mmHg 80%
    19:00 +8°C° 0.4 mm 5 mps 743 mmHg 85%
    20:00 +8°C° 0.4 mm 5 mps 743 mmHg 90%
    21:00 +8°C° 0.6 mm 5 mps 743 mmHg 91%
    22:00 +8°C° 0.6 mm 4 mps 743 mmHg 93%
    23:00 +8°C° 0.6 mm 4 mps 742 mmHg 94%

    Tomorrow, 3 June, Wednesday

    Time Temperature Precipitation Wind Pressure Humidity
    00:00 +8°C° 0.2 mm 4 mps 742 mmHg 95%
    01:00 +9°C° 0.2 mm 3 mps 742 mmHg 96%
    02:00 +9°C° 0.2 mm 3 mps 742 mmHg 97%
    03:00 +9°C° 0 mm 3 mps 742 mmHg 96%
    04:00 +9°C° 0 mm 3 mps 742 mmHg 96%
    05:00 +9°C° 0 mm 3 mps 742 mmHg 96%
    06:00 +10°C° 0 mm 3 mps 742 mmHg 92%
    07:00 +11°C° 0 mm 3 mps 742 mmHg 88%
    08:00 +12°C° 0 mm 3 mps 742 mmHg 84%
    09:00 +13°C° 0 mm 3 mps 742 mmHg 77%
    10:00 +14°C° 0 mm 3 mps 742 mmHg 69%
    11:00 +17°C° 0 mm 4 mps 742 mmHg 62%
    12:00 +17°C° 0.1 mm 4 mps 741 mmHg 60%
    13:00 +18°C° 0.1 mm 4 mps 741 mmHg 57%
    14:00 +19°C° 0.1 mm 4 mps 741 mmHg 55%
    15:00 +18°C° 0.2 mm 3 mps 741 mmHg 57%
    16:00 +18°C° 0.2 mm 3 mps 740 mmHg 59%
    17:00 +18°C° 0.2 mm 3 mps 740 mmHg 60%
    18:00 +16°C° 0.1 mm 3 mps 740 mmHg 68%
    19:00 +15°C° 0.1 mm 2 mps 740 mmHg 76%
    20:00 +13°C° 0.1 mm 2 mps 740 mmHg 84%
    21:00 +12°C° 0 mm 2 mps 739 mmHg 88%
    22:00 +10°C° 0 mm 2 mps 739 mmHg 91%
    23:00 +9°C° 0 mm 2 mps 739 mmHg 94%

    Day after tomorrow, 4 June, Thursday

    Time Temperature Precipitation Wind Pressure Humidity
    00:00 +9°C° 0 mm 2 mps 739 mmHg 95%
    01:00 +8°C° 0 mm 2 mps 739 mmHg 95%
    02:00 +8°C° 0 mm 2 mps 739 mmHg 95%
    03:00 +8°C° 0 mm 2 mps 739 mmHg 94%
    04:00 +9°C° 0 mm 2 mps 738 mmHg 94%
    05:00 +9°C° 0 mm 2 mps 738 mmHg 93%
    06:00 +10°C° 0 mm 2 mps 738 mmHg 88%
    07:00 +13°C° 0 mm 2 mps 738 mmHg 84%
    08:00 +14°C° 0 mm 2 mps 738 mmHg 79%
    09:00 +14°C° 0.8 mm 3 mps 738 mmHg 78%
    10:00 +16°C° 0.8 mm 3 mps 737 mmHg 76%
    11:00 +17°C° 0.8 mm 4 mps 737 mmHg 75%
    12:00 +17°C° 0.3 mm 4 mps 737 mmHg 71%
    13:00 +18°C° 0.3 mm 4 mps 737 mmHg 67%
    14:00 +18°C° 0.3 mm 4 mps 737 mmHg 62%
    15:00 +18°C° 0.5 mm 4 mps 737 mmHg 67%
    16:00 +17°C° 0.5 mm 4 mps 736 mmHg 71%
    17:00 +15°C° 0.5 mm 4 mps 736 mmHg 76%
    18:00 +14°C° 0.3 mm 3 mps 736 mmHg 81%
    19:00 +13°C° 0.3 mm 3 mps 736 mmHg 86%
    20:00 +13°C° 0.3 mm 2 mps 736 mmHg 91%
    21:00 +12°C° 0 mm 2 mps 736 mmHg 93%
    22:00 +10°C° 0 mm 2 mps 736 mmHg 94%
    23:00 +9°C° 0 mm 2 mps 737 mmHg 95%

    5 June, Friday

    Time Temperature Precipitation Wind Pressure Humidity
    00:00 +9°C° 0 mm 2 mps 737 mmHg 96%
    01:00 +8°C° 0 mm 2 mps 737 mmHg 96%
    02:00 +8°C° 0 mm 2 mps 737 mmHg 97%
    03:00 +8°C° 0 mm 2 mps 737 mmHg 97%
    04:00 +8°C° 0 mm 2 mps 737 mmHg 97%
    05:00 +8°C° 0 mm 2 mps 737 mmHg 97%
    06:00 +10°C° 0 mm 2 mps 738 mmHg 93%
    07:00 +11°C° 0 mm 3 mps 738 mmHg 89%
    08:00 +13°C° 0 mm 3 mps 739 mmHg 85%
    09:00 +16°C° 0 mm 3 mps 739 mmHg 76%
    10:00 +17°C° 0 mm 3 mps 739 mmHg 67%
    11:00 +19°C° 0 mm 3 mps 739 mmHg 58%
    12:00 +20°C° 0 mm 3 mps 739 mmHg 55%
    13:00 +21°C° 0 mm 3 mps 739 mmHg 52%
    14:00 +23°C° 0 mm 2 mps 739 mmHg 49%
    15:00 +22°C° 0 mm 3 mps 738 mmHg 51%
    16:00 +22°C° 0 mm 3 mps 738 mmHg 53%
    17:00 +22°C° 0 mm 3 mps 738 mmHg 55%
    18:00 +20°C° 0 mm 3 mps 738 mmHg 64%
    19:00 +19°C° 0 mm 3 mps 738 mmHg 73%
    20:00 +17°C° 0 mm 3 mps 738 mmHg 81%
    21:00 +17°C° 0 mm 3 mps 738 mmHg 86%
    22:00 +16°C° 0 mm 3 mps 738 mmHg 91%
    23:00 +14°C° 0 mm 3 mps 738 mmHg 96%

    6 June, Saturday

    Time Temperature Precipitation Wind Pressure Humidity
    00:00 +14°C° 0 mm 3 mps 738 mmHg 97%
    01:00 +15°C° 0 mm 2 mps 738 mmHg 97%
    02:00 +15°C° 0 mm 2 mps 738 mmHg 98%
    03:00 +15°C° 0 mm 2 mps 738 mmHg 98%
    04:00 +15°C° 0 mm 2 mps 738 mmHg 97%
    05:00 +15°C° 0 mm 2 mps 738 mmHg 97%
    06:00 +17°C° 0 mm 2 mps 738 mmHg 91%
    07:00 +19°C° 0 mm 3 mps 738 mmHg 84%
    08:00 +21°C° 0 mm 3 mps 738 mmHg 78%
    09:00 +22°C° 0.4 mm 4 mps 738 mmHg 76%
    10:00 +23°C° 0.4 mm 4 mps 738 mmHg 73%
    11:00 +25°C° 0.4 mm 5 mps 738 mmHg 71%
    12:00 +25°C° 0.9 mm 5 mps 738 mmHg 72%
    13:00 +24°C° 0.9 mm 6 mps 738 mmHg 73%
    14:00 +24°C° 0.9 mm 6 mps 738 mmHg 74%
    15:00 +23°C° 0.7 mm 6 mps 738 mmHg 77%
    16:00 +21°C° 0.7 mm 5 mps 738 mmHg 80%
    17:00 +20°C° 0.7 mm 5 mps 738 mmHg 83%
    18:00 +19°C° 0 mm 4 mps 739 mmHg 84%
    19:00 +17°C° 0 mm 4 mps 739 mmHg 85%
    20:00 +15°C° 0 mm 4 mps 740 mmHg 86%
    21:00 +13°C° 0 mm 4 mps 741 mmHg 89%
    22:00 +12°C° 0 mm 3 mps 741 mmHg 93%
    23:00 +10°C° 0 mm 2 mps 742 mmHg 96%

    7 June, Sunday

    Time Temperature Precipitation Wind Pressure Humidity
    00:00 +10°C° 0 mm 2 mps 743 mmHg 96%
    01:00 +10°C° 0 mm 2 mps 743 mmHg 96%
    02:00 +10°C° 0 mm 2 mps 743 mmHg 95%
    03:00 +10°C° 0 mm 2 mps 744 mmHg 95%
    04:00 +10°C° 0 mm 2 mps 744 mmHg 95%
    05:00 +12°C° 0 mm 2 mps 745 mmHg 94%
    06:00 +14°C° 0 mm 2 mps 745 mmHg 86%
    07:00 +16°C° 0 mm 2 mps 745 mmHg 77%
    08:00 +18°C° 0 mm 2 mps 746 mmHg 69%
    09:00 +19°C° 0 mm 2 mps 746 mmHg 63%
    10:00 +20°C° 0 mm 2 mps 747 mmHg 57%
    11:00 +23°C° 0 mm 2 mps 747 mmHg 51%
    12:00 +23°C° 0 mm 2 mps 747 mmHg 52%
    13:00 +23°C° 0 mm 2 mps 747 mmHg 53%
    14:00 +23°C° 0 mm 2 mps 747 mmHg 54%
    15:00 +23°C° 0.1 mm 2 mps 747 mmHg 60%
    16:00 +21°C° 0.1 mm 2 mps 747 mmHg 65%
    17:00 +22°C° 0.1 mm 1 mps 747 mmHg 71%
    18:00 +21°C° 0 mm 1 mps 747 mmHg 75%
    19:00 +20°C° 0 mm 1 mps 747 mmHg 78%
    20:00 +19°C° 0 mm 1 mps 747 mmHg 82%
    21:00 +18°C° 0 mm 1 mps 747 mmHg 84%
    22:00 +16°C° 0 mm 2 mps 748 mmHg 86%
    23:00 +15°C° 0 mm 2 mps 748 mmHg 88%
    Show more